Anniston, AL

8:38 AM CDT on March 28, 2017 (GMT -0500)
Anniston Metro

Weather History for KANB - February, 2014

Change the Weather History Date:

Monday, February 24, 2014

  Actual Average Record
Temperature  
Mean Temperature 54 °F 50 °F  
Max Temperature 64 °F 61 °F 84 °F (1996)
Min Temperature 44 °F 38 °F 19 °F (1989)
Degree Days  
Heating Degree Days 11    
Month to date heating degree days 419  
Since 1 July heating degree days 2387  
Growing Degree Days 4 (Base 50)    
Moisture  
Dew Point 34 °F    
Average Humidity 60    
Maximum Humidity 92    
Minimum Humidity 27    
Precipitation  
Precipitation 0.00 in 0.19 in 1.79 in (1961)
Month to date precipitation 3.68 4.33  
Year to date precipitation 6.89 8.85  
Sea Level Pressure  
Sea Level Pressure 30.12 in    
Wind  
Wind Speed 6 mph (NNE)    
Max Wind Speed 14 mph    
Max Gust Speed 18 mph    
Visibility 10 miles    
Events      
T = Trace of Precipitation, MM = Missing Value Source: NWS Daily Summary

Daily Weather History Graph

Daily Weather History Graph

Search for Another Location

Airport or City:

Trip Planner

Search our weather history database for the weather conditions in past years. The results will help you decide how hot, cold, wet, or windy it might be!

Date:

Astronomy

Feb. 24, 2014 Rise Set
Actual Time 6:17 AM CST 5:35 PM CST
Civil Twilight 5:52 AM CST 6:01 PM CST
Nautical Twilight 5:23 AM CST 6:30 PM CST
Astronomical Twilight 4:54 AM CST 6:58 PM CST
Moon 2:06 AM CST (2/24) 12:45 PM CST (2/24)
Length of Visible Light 12h 08m
Length of Day
11h 18m
Waning Crescent, 28% of the Moon is Illuminated
Feb 24
Waning Crescent
Mar 1
New
Mar 8
First Quarter
Mar 16
Full
Mar 23
Last Quarter

Hourly Weather History & Observations

Time (CST) Temp. Windchill Dew Point Humidity Pressure Visibility Wind Dir Wind Speed Gust Speed Precip Events Conditions
12:29 AM 48.0 °F - 45.0 °F 89% 30.03 in 10.0 mi SW 4.6 mph - N/A   Scattered Clouds
12:53 AM 50.0 °F - 46.0 °F 86% 30.03 in 10.0 mi East 4.6 mph - N/A   Clear
1:53 AM 51.1 °F - 39.0 °F 63% 30.04 in 10.0 mi ESE 6.9 mph - N/A   Clear
2:53 AM 50.0 °F - 36.0 °F 59% 30.06 in 10.0 mi NNE 8.1 mph - N/A   Partly Cloudy
3:53 AM 48.9 °F - 36.0 °F 61% 30.09 in 10.0 mi Variable 5.8 mph - N/A   Clear
4:53 AM 46.0 °F 42.5 °F 35.1 °F 66% 30.12 in 10.0 mi NNE 6.9 mph - N/A   Clear
5:53 AM 45.0 °F 40.1 °F 34.0 °F 65% 30.15 in 10.0 mi NNE 9.2 mph - N/A   Clear
6:53 AM 45.0 °F 43.5 °F 35.1 °F 68% 30.17 in 10.0 mi NE 3.5 mph - N/A   Clear
7:53 AM 46.9 °F - 35.1 °F 63% 30.20 in 10.0 mi NNE 10.4 mph - N/A   Clear
8:53 AM 50.0 °F - 36.0 °F 59% 30.19 in 10.0 mi NNE 5.8 mph - N/A   Clear
9:53 AM 54.0 °F - 36.0 °F 51% 30.17 in 10.0 mi East 4.6 mph - N/A   Clear
10:53 AM 57.9 °F - 35.1 °F 42% 30.18 in 10.0 mi NNE 6.9 mph - N/A   Clear
11:53 AM 60.1 °F - 34.0 °F 38% 30.15 in 10.0 mi NNE 9.2 mph - N/A   Clear
12:53 PM 63.0 °F - 30.0 °F 29% 30.13 in 10.0 mi NNE 9.2 mph - N/A   Clear
1:53 PM 63.0 °F - 28.9 °F 28% 30.12 in 10.0 mi NNW 10.4 mph - N/A   Clear
2:53 PM 63.0 °F - 28.9 °F 28% 30.11 in 10.0 mi NNW 10.4 mph - N/A   Clear
3:53 PM 63.0 °F - 28.0 °F 27% 30.11 in 10.0 mi North 8.1 mph - N/A   Clear
4:53 PM 60.1 °F - 26.1 °F 27% 30.12 in 10.0 mi North 8.1 mph - N/A   Clear
5:53 PM 57.0 °F - 25.0 °F 29% 30.13 in 10.0 mi North 5.8 mph - N/A   Clear
6:53 PM 54.0 °F - 28.9 °F 38% 30.14 in 10.0 mi Calm Calm - N/A   Clear
7:53 PM 48.9 °F - 36.0 °F 61% 30.14 in 10.0 mi Calm Calm - N/A   Clear
8:53 PM 48.0 °F - 36.0 °F 63% 30.15 in 10.0 mi Calm Calm - N/A   Clear
9:53 PM 46.0 °F - 36.0 °F 68% 30.14 in 10.0 mi Calm Calm - N/A   Clear
10:53 PM 44.1 °F 42.5 °F 36.0 °F 73% 30.11 in 10.0 mi ENE 3.5 mph - N/A   Clear
11:53 PM 46.0 °F 43.1 °F 30.9 °F 56% 30.09 in 10.0 mi NNE 5.8 mph - N/A   Clear